User: anonymous   Login
Location: Unspecified
(0.0000°N, 0.0000°E)
Time: 09:13:15
(UTC+01:00)
Language:

Milstar 3 Cent rocket - Orbit

View from above orbital plane
View from above orbital plane
View from above satellite
View from above satellite

Ground track
Ground track

The orbit data is extracted from the following two-line orbital elements,

1 25725U 99023B   18016.69323990 0.00000000  00000-0  00000-0 0    04
2 25725  28.4100 288.0693 2388613 208.1516 151.8478  9.67256330    03
Epoch (UTC): 16 January 2018 16:38:15
Eccentricity: 0.2388613
inclination: 28.4100°
perigee height: 704 km
apogee height: 5149 km
right ascension of ascending node: 288.0693°
argument of perigee: 208.1516°
revolutions per day: 9.67256330
mean anomaly at epoch: 151.8478°
orbit number at epoch: 0

The dashed part of the orbit path shows where the satellite is in the earth's shadow,  

DLR